Location: Newark
(50.4348°N, 30.5552°E)
Time: 05:47:22
(UTC+00:00)

Envisat - Pass Details

Date: 14 December 2019
Orbit: 764 x 766 km, 98.1° (Epoch: 20 January)

Event Time Altitude Azimuth Distance (km) Brightness Sun altitude
Rises 03:49:22 0° 23° (NNE) 3,246 6.4 -18.1°
Reaches altitude 10° 03:52:07 10° 37° (NE) 2,314 5.8 -17.7°
Maximum altitude 03:56:15 25° 92° (E) 1,532 5.4 -17.0°
Drops below altitude 10° 04:00:21 10° 146° (SE) 2,299 6.2 -16.4°
Sets 04:03:03 0° 160° (SSE) 3,219 6.8 -16.0°
